Flag for U.S.A. Weather past 2 weeks in Elizabeth, New Jersey, U.S.A.

Now
70 °F

Passing clouds.


Feels Like: 69 °F
Forecast: 69 / 84 °F
Wind: 9 mph from South

Location: Newark International Airport

Current Time: May 27, 2015 at 6:53:28 AM

Latest Report: May 27, 2015 at 5:51 AM


Visibility: 10 mi

Pressure: 30.16 "Hg

Humidity: 84%

Dew point: 65 °F

Location of ElizabethLocation

Historic Weather in Elizabeth — Graph

°F

Elizabeth temperature yesterday

Maximum temperature yesterday: 91 °F (at 2:51 PM)
Minimum temperature yesterday: 66 °F (at 5:51 AM)
Average temperature yesterday: 78 °F

Past Weeks' High & Low Weather Summary

 TemperatureHumidityPressure
High91 °F (May 26, 2:51 PM)98% (May 17, 3:51 AM)30.42 "Hg (May 17, 3:51 AM)
Low49 °F (May 23, 5:51 AM)14% (May 14, 3:51 PM)29.75 "Hg (May 12, 6:51 PM)
Average67 °F54%30.11 "Hg
* Reported May 12 5:51 AM — May 27 5:51 AM, Elizabeth, Weather by CustomWeather, © 2015

Note: Actual official high and low records may vary slightly from our data, if they occured in-between our weather recording intervals... More about our weather records

Advertising

Elizabeth weather history for previous 24 hours

 ConditionsComfort  
Time TempWeatherWind HumidityBarometerVisibility
5:51 AM
Wed, May 27
70 °FPassing clouds.9 mph84%30.16 "Hg10 mi
4:51 AM70 °FPartly cloudy.9 mph81%30.15 "Hg10 mi
3:51 AM70 °FPassing clouds.8 mph81%30.14 "Hg10 mi
2:51 AM70 °FPartly cloudy.9 mph79%30.15 "Hg10 mi
1:51 AM72 °FMostly cloudy.12 mph71%30.15 "Hg10 mi
12:51 AM72 °FMostly cloudy.12 mph71%30.16 "Hg10 mi
11:51 PM
Tue, May 26
74 °FPartly cloudy.16 mph69%30.16 "Hg10 mi
10:51 PM75 °FPassing clouds.16 mph64%30.16 "Hg10 mi
9:51 PM76 °FPassing clouds.16 mph62%30.14 "Hg10 mi
8:51 PM79 °FBroken clouds.16 mph58%30.12 "Hg10 mi
7:51 PM82 °FScattered clouds.13 mph55%30.11 "Hg10 mi
6:51 PM88 °FScattered clouds.12 mph39%30.11 "Hg10 mi
5:51 PM88 °FBroken clouds.13 mph36%30.12 "Hg10 mi
4:51 PM89 °FBroken clouds.12 mph35%30.12 "Hg10 mi
3:51 PM91 °FBroken clouds.12 mph34%30.13 "Hg10 mi
2:51 PM91 °FBroken clouds.9 mph34%30.15 "Hg10 mi
1:51 PM89 °FBroken clouds.12 mph36%30.16 "Hg10 mi
12:51 PM88 °FPartly sunny.12 mph39%30.18 "Hg10 mi
11:51 AM85 °FScattered clouds.10 mph43%30.19 "Hg10 mi
10:51 AM82 °FScattered clouds.12 mph48%30.20 "Hg10 mi
9:51 AM77 °FScattered clouds.12 mph56%30.20 "Hg10 mi
8:51 AM74 °FScattered clouds.12 mph60%30.22 "Hg10 mi
7:51 AM70 °FScattered clouds.13 mph68%30.22 "Hg10 mi
6:51 AM67 °FPartly sunny.10 mph71%30.22 "Hg10 mi
Weather by CustomWeather, © 2015

See weather overviewHow to use our weather pages